DW1830 Weather Reports


time (UTC)temp
F
wind
direction
speed
knots
gust
knots
rain 1hr
in
rain 24hr
in
rain mn
in
humidity
%
barometer
mb
20190522033227 58 329 0.0 2.6 0.00 0.04 0.04 76 1008.5
20190522030227 58 330 0.0 2.6 0.00 0.04 0.04 74 1008.2
20190522023227 59 329 0.9 4.3 0.00 0.04 0.04 69 1007.7
20190522020227 60 338 1.7 7.8 0.00 0.04 0.04 64 1007.6
20190522013227 61 316 0.0 7.8 0.00 0.04 0.04 60 1007.1
20190522010228 62 281 0.0 7.8 0.00 0.04 0.04 58 1006.7
20190522003225 63 284 0.0 6.1 0.00 0.04 0.04 57 1006.4
20190522000226 63 245 3.5 11.3 0.00 0.04 0.04 53 1006.2
20190521233225 64 304 0.0 7.8 0.00 0.04 0.04 52 1006.1
20190521230225 64 220 3.5 9.6 0.00 0.04 0.04 51 1005.8
20190521223226 64 321 0.9 9.6 0.00 0.04 0.04 48 1005.7
20190521220226 63 260 1.7 8.7 0.00 0.04 0.04 50 1005.6
20190521213225 62 49 0.0 8.7 0.00 0.04 0.04 47 1005.6
20190521210225 62 5 5.2 8.7 0.00 0.04 0.04 48 1005.5
20190521203225 63 257 0.0 5.2 0.00 0.04 0.04 49 1005.2
20190521200225 63 360 0.9 7.8 0.00 0.04 0.04 49 1005.0
20190521193226 62 313 0.0 5.2 0.00 0.04 0.04 50 1005.0
20190521190225 62 228 1.7 5.2 0.00 0.04 0.04 52 1004.9
20190521183225 61 312 2.6 4.3 0.01 0.04 0.04 51 1004.6
20190521180225 60 335 2.6 5.2 0.01 0.04 0.04 55 1004.5
20190521173225 60 355 0.0 3.5 0.00 0.03 0.03 62 1004.5
20190521170225 57 263 0.0 5.2 0.00 0.03 0.03 70 1004.3
20190521163228 57 237 0.0 2.6 0.00 0.03 0.03 74 1004.2
20190521160225 54 219 0.0 2.6 0.00 0.03 0.03 79 1004.2
20190521153225 52 219 0.0 2.6 0.00 0.03 0.03 87 1004.1
20190521150225 51 185 0.0 2.6 0.00 0.03 0.03 94 1004.0
20190521143225 50 117 0.0 2.6 0.00 0.03 0.03 95 1003.9
20190521140225 49 117 0.0 0.0 0.00 0.03 0.03 95 1003.9
20190521133225 49 117 0.0 0.0 0.00 0.05 0.03 95 1003.8
20190521130225 48 117 0.0 0.0 0.00 0.08 0.03 95 1003.6
20190521123225 48 116 0.0 0.0 0.00 0.09 0.03 95 1003.6
20190521120225 49 117 0.0 0.0 0.00 0.09 0.03 94 1003.6
20190521113225 49 116 0.0 0.0 0.00 0.09 0.03 93 1003.6
20190521110224 49 116 0.0 1.7 0.00 0.09 0.03 92 1003.9
20190521103225 49 116 0.0 0.0 0.01 0.09 0.03 90 1004.1
20190521100225 50 116 0.0 2.6 0.01 0.09 0.03 90 1004.2
20190521093224 50 113 0.0 0.0 0.00 0.08 0.02 89 1004.5
20190521090224 50 113 0.0 0.0 0.00 0.08 0.02 88 1004.5
20190521083224 50 113 0.0 0.0 0.00 0.08 0.02 87 1004.5
20190521080224 51 113 0.0 3.5 0.02 0.08 0.02 85 1004.8
20190521073224 52 242 0.0 1.7 0.02 0.08 0.02 81 1004.9
20190521070224 53 242 0.0 6.1 0.00 0.06 0.00 76 1005.1
20190521063224 53 184 0.0 7.8 0.00 0.06 0.06 71 1005.1
20190521060224 53 171 4.3 6.1 0.00 0.06 0.06 73 1005.1
20190521053224 51 19 0.0 0.0 0.00 0.06 0.06 75 1004.1
20190521050224 52 19 0.0 0.0 0.00 0.06 0.06 72 1004.1
20190521043224 53 19 0.0 0.0 0.00 0.06 0.06 68 1003.9
20190521040223 55 19 0.0 1.7 0.00 0.06 0.06 64 1004.1